This demonstration page uses our WeatherBlox Daily Observations layout. Learn more.

Left ArrowRight Arrow

41.55636, -103.73856

Hourly Observations for April 18, 2018

Temp ( °F °C ) Dew Point ( °F °C ) Humidity (%) Winds ( mph kmh ) Pressure ( in mb ) Visibility ( mi km ) Precip ( " mm )
12:58 am 00:58 Partly Cloudy 28 -2.4 23 -4.8 84 84 NW 12 19 30.05 1018 10 16 N/A
1:58 am 01:58 Clear 28 -2.1 22 -5.4 78 78 NW 21 33 30.05 1018 10 16 N/A
2:58 am 02:58 Mostly Clear 30 -1.3 23 -5 76 76 WNW 22 35 30.09 1019 10 16 N/A
3:58 am 03:58 Clear 30 -1.3 23 -4.8 77 77 NW 22 35 30.10 1019 10 16 N/A
4:58 am 04:58 Clear 29 -1.6 23 -5.2 77 77 NW 22 35 30.15 1021 10 16 N/A
5:58 am 05:58 Clear 29 -1.8 22 -5.8 74 74 NW 22 35 30.17 1022 10 16 N/A
6:58 am 06:58 Sunny 29 -1.5 22 -5.6 74 74 NW 24 39 30.25 1024 10 16 N/A
7:58 am 07:58 Sunny 33 0.5 24 -4.5 69 69 NW 23 37 30.27 1025 10 16 N/A
8:58 am 08:58 Sunny 38 3.5 26 -3.6 60 60 NNW 26 43 30.28 1025 10 16 N/A
9:58 am 09:58 Sunny 42 5.5 24 -4.2 50 50 NNW 31 50 30.27 1025 10 16 N/A
10:58 am 10:58 Partly Cloudy 45 7.1 25 -3.9 46 46 NNW 26 43 30.29 1026 10 16 N/A
11:58 am 11:58 Mostly Cloudy 45 7.4 22 -5.5 40 40 NNW 26 43 30.30 1026 10 16 N/A
12:58 pm 12:58 Partly Cloudy 49 9.3 20 -6.6 32 32 NNW 26 43 30.30 1026 10 16 N/A
1:58 pm 13:58 Partly Cloudy 51 10.4 21 -6.1 31 31 NW 21 33 30.29 1026 10 16 N/A
2:58 pm 14:58 Mostly Sunny 51 10.5 18 -7.8 27 27 N 30 48 30.25 1025 10 16 N/A
3:58 pm 15:58 Sunny 51 10.6 18 -7.6 27 27 N 21 33 30.25 1025 10 16 N/A
4:58 pm 16:58 Sunny 51 10.8 17 -8.1 26 26 N 16 26 30.25 1025 10 16 N/A
5:58 pm 17:58 Sunny 50 9.8 17 -8.5 27 27 N 18 30 30.28 1025 10 16 N/A
6:58 pm 18:58 Sunny 46 8 17 -8.4 31 31 N 15 24 30.29 1026 10 16 N/A
7:58 pm 19:58 Clear 39 3.8 19 -7.5 44 44 NE 8 13 30.32 1027 10 16 N/A
8:58 pm 20:58 Clear 36 2.1 20 -6.5 53 53 E 6 9 30.34 1027 N/A N/A
9:58 pm 21:58 Clear 35 1.5 20 -6.9 54 54 NE 7 11 30.33 1027 10 16 N/A
10:58 pm 22:58 Clear 36 2.3 19 -7.2 50 50 E 5 7 30.32 1027 10 16 N/A
11:58 pm 23:58 Clear 36 2.4 19 -7.3 49 49 E 6 9 30.32 1027 10 16 N/A

Powered by AerisWeather